DW5641 Weather Reports


time (UTC)temp
C
wind
direction
speed
KPH
gust
KPH
rain 1hr
cm
rain 24hr
cm
rain mn
cm
humidity
%
barometer
mb
20190424224504 22 165 1.6 6.4 0.00 0.00 0.00 80 1020.4
20190424224006 22 135 1.6 4.8 0.00 0.00 0.00 80 1020.3
20190424223506 22 130 1.6 8.0 0.00 0.00 0.00 81 1020.2
20190424223004 21 189 1.6 8.0 0.00 0.00 0.00 80 1020.3
20190424222505 21 219 1.6 8.0 0.00 0.00 0.00 81 1020.2
20190424222006 21 146 3.2 9.7 0.00 0.00 0.00 81 1020.1
20190424221504 21 199 3.2 11.3 0.00 0.00 0.00 82 1020.1
20190424221005 20 224 3.2 11.3 0.00 0.00 0.00 83 1020.1
20190424220504 20 115 1.6 9.7 0.00 0.00 0.00 84 1020.1
20190424220004 20 217 0.0 6.4 0.00 0.00 0.00 84 1019.9
20190424215503 20 115 1.6 8.0 0.00 0.00 0.00 85 1019.9
20190424215004 20 219 1.6 8.0 0.00 0.00 0.00 85 1019.9
20190424214503 20 210 1.6 9.7 0.00 0.00 0.00 86 1019.8
20190424214004 20 111 3.2 9.7 0.00 0.00 0.00 86 1019.7
20190424213502 20 139 3.2 9.7 0.00 0.00 0.00 87 1019.7
20190424213002 19 226 1.6 8.0 0.00 0.00 0.00 88 1019.5
20190424212502 19 208 1.6 6.4 0.00 0.00 0.00 89 1019.6
20190424212002 18 207 0.0 3.2 0.00 0.00 0.00 90 1019.7
20190424211502 18 246 0.0 3.2 0.00 0.00 0.00 90 1019.6
20190424211002 18 248 0.0 3.2 0.00 0.00 0.00 90 1019.6
20190424210502 18 246 0.0 3.2 0.00 0.00 0.00 90 1019.7
20190424210000 18 249 0.0 1.6 0.00 0.00 0.00 90 1019.8
20190424205500 18 249 1.6 6.4 0.00 0.00 0.00 90 1019.8
20190424205000 18 249 1.6 6.4 0.00 0.00 0.00 91 1019.6
20190424204501 18 246 0.0 4.8 0.00 0.00 0.00 91 1019.5
20190424204000 18 231 0.0 4.8 0.00 0.00 0.00 91 1019.5
20190424203500 18 230 0.0 3.2 0.00 0.00 0.00 91 1019.5
20190424203000 18 218 0.0 1.6 0.00 0.00 0.00 91 1019.6
20190424202502 18 218 0.0 3.2 0.00 0.00 0.00 91 1019.6
20190424202001 18 211 0.0 3.2 0.00 0.00 0.00 91 1019.5
20190424201500 18 222 1.6 4.8 0.00 0.00 0.00 91 1019.4
20190424200958 18 188 1.6 4.8 0.00 0.00 0.00 90 1019.3
20190424200458 18 201 1.6 4.8 0.00 0.00 0.00 90 1019.3
20190424200000 18 258 0.0 3.2 0.00 0.00 0.00 91 1019.3
20190424195458 18 247 0.0 3.2 0.00 0.00 0.00 90 1019.2
20190424195000 18 201 1.6 3.2 0.00 0.00 0.00 90 1019.1
20190424194458 18 193 1.6 8.0 0.00 0.00 0.00 90 1019.1
20190424193958 18 218 1.6 8.0 0.00 0.00 0.00 90 1019.3
20190424193458 18 228 0.0 3.2 0.00 0.00 0.00 90 1019.2
20190424192957 18 244 0.0 3.2 0.00 0.00 0.00 89 1019.1
20190424192457 18 244 1.6 3.2 0.00 0.00 0.00 89 1019.0
20190424191956 18 260 1.6 6.4 0.00 0.00 0.00 89 1019.0
20190424191456 18 248 1.6 6.4 0.00 0.00 0.00 90 1019.0
20190424190956 18 237 0.0 3.2 0.00 0.00 0.00 90 1019.0
20190424190456 18 250 1.6 3.2 0.00 0.00 0.00 89 1018.9
20190424185956 18 244 1.6 3.2 0.00 0.00 0.00 89 1018.8
20190424185456 18 211 0.0 3.2 0.00 0.00 0.00 89 1018.8
20190424184956 18 230 0.0 3.2 0.00 0.00 0.00 89 1018.9
20190424184457 18 241 0.0 3.2 0.00 0.00 0.00 89 1018.8
20190424183956 18 218 0.0 1.6 0.00 0.00 0.00 89 1018.7
20190424183455 18 210 0.0 3.2 0.00 0.00 0.00 89 1018.6
20190424182954 18 201 0.0 3.2 0.00 0.00 0.00 89 1018.5
20190424182453 18 196 0.0 3.2 0.00 0.00 0.00 89 1018.6
20190424181954 18 194 0.0 1.6 0.00 0.00 0.00 89 1018.7
20190424181455 18 230 0.0 1.6 0.00 0.00 0.00 89 1018.9
20190424180954 18 230 0.0 1.6 0.00 0.00 0.00 89 1018.8
20190424180454 18 230 0.0 1.6 0.00 0.00 0.00 88 1018.7
20190424175954 18 230 0.0 0.0 0.00 0.00 0.00 88 1018.6
20190424175454 18 230 0.0 1.6 0.00 0.00 0.00 88 1018.7
20190424174953 18 229 0.0 3.2 0.00 0.00 0.00 89 1018.6
20190424174452 18 227 1.6 3.2 0.00 0.00 0.00 89 1018.4
20190424173954 18 258 0.0 3.2 0.00 0.00 0.00 90 1018.3
20190424173452 18 227 0.0 4.8 0.00 0.00 0.00 90 1018.3
20190424172954 18 234 0.0 4.8 0.00 0.00 0.00 90 1018.3
20190424172453 18 213 1.6 3.2 0.00 0.00 0.00 91 1018.3
20190424171952 18 218 0.0 3.2 0.00 0.00 0.00 91 1018.4
20190424171454 18 211 0.0 3.2 0.00 0.00 0.00 91 1018.6
20190424170953 18 225 0.0 3.2 0.00 0.00 0.00 91 1018.6
20190424170452 18 220 0.0 3.2 0.00 0.00 0.00 91 1018.6
20190424165951 18 210 0.0 1.6 0.00 0.00 0.00 91 1018.8
20190424165452 18 210 0.0 1.6 0.00 0.00 0.00 91 1018.9
20190424164950 18 211 0.0 1.6 0.00 0.00 0.00 91 1019.1
20190424164451 18 213 0.0 1.6 0.00 0.00 0.00 92 1019.1
20190424163950 18 213 0.0 1.6 0.00 0.00 0.00 92 1019.2
20190424163452 17 213 0.0 0.0 0.00 0.00 0.00 93 1019.2
20190424162950 17 213 0.0 0.0 0.00 0.00 0.00 93 1019.2
20190424162450 17 213 0.0 0.0 0.00 0.00 0.00 93 1019.3
20190424161949 17 213 0.0 0.0 0.00 0.00 0.00 93 1019.4
20190424161449 17 213 0.0 0.0 0.00 0.00 0.00 93 1019.4
20190424160948 17 213 0.0 0.0 0.00 0.00 0.00 92 1019.5
20190424160448 17 213 0.0 0.0 0.00 0.00 0.00 92 1019.6
20190424155948 17 213 0.0 0.0 0.00 0.00 0.00 92 1019.6
20190424155448 17 213 0.0 0.0 0.00 0.00 0.00 92 1019.5
20190424154948 17 213 0.0 0.0 0.00 0.00 0.00 92 1019.5
20190424154448 17 213 0.0 0.0 0.00 0.00 0.00 91 1019.6
20190424153948 18 213 0.0 0.0 0.00 0.00 0.00 91 1019.5
20190424153448 18 213 0.0 0.0 0.00 0.00 0.00 91 1019.6
20190424152947 18 212 0.0 0.0 0.00 0.00 0.00 91 1019.5
20190424152447 18 213 0.0 0.0 0.00 0.00 0.00 91 1019.5
20190424151946 18 213 0.0 1.6 0.00 0.00 0.00 90 1019.5
20190424151447 18 213 0.0 3.2 0.00 0.00 0.00 90 1019.6
20190424150946 18 213 0.0 3.2 0.00 0.00 0.00 90 1019.5
20190424150446 18 209 0.0 3.2 0.00 0.00 0.00 89 1019.5
20190424145946 18 206 0.0 0.0 0.00 0.00 0.00 89 1019.4
20190424145448 18 206 0.0 0.0 0.00 0.00 0.00 89 1019.6
20190424144947 18 206 0.0 0.0 0.00 0.00 0.00 89 1019.6
20190424144446 18 206 0.0 0.0 0.00 0.00 0.00 89 1019.6
20190424143944 18 206 0.0 0.0 0.00 0.00 0.00 89 1019.7
20190424143444 18 206 0.0 0.0 0.00 0.00 0.00 88 1019.8
20190424142944 18 206 0.0 0.0 0.00 0.00 0.00 88 1020.0
20190424142446 18 206 0.0 0.0 0.00 0.00 0.00 87 1020.0
20190424141944 18 206 0.0 0.0 0.00 0.00 0.00 87 1019.9
20190424141446 19 206 0.0 0.0 0.00 0.00 0.00 88 1019.8
20190424140944 19 206 0.0 0.0 0.00 0.00 0.00 88 1019.9
20190424140442 19 206 0.0 0.0 0.00 0.00 0.00 88 1020.0
20190424135942 19 206 0.0 0.0 0.00 0.00 0.00 88 1020.0
20190424135440 19 206 0.0 0.0 0.00 0.00 0.00 88 1020.0
20190424134940 19 206 0.0 0.0 0.00 0.00 0.00 88 1020.1
20190424134438 19 206 0.0 0.0 0.00 0.00 0.00 87 1020.2
20190424133940 19 206 0.0 0.0 0.00 0.00 0.00 87 1020.3
20190424133440 19 206 0.0 0.0 0.00 0.00 0.00 88 1020.4
20190424132938 19 206 0.0 0.0 0.00 0.00 0.00 89 1020.4
20190424132438 19 206 0.0 0.0 0.00 0.00 0.00 89 1020.5
20190424131938 19 206 0.0 0.0 0.00 0.00 0.00 89 1020.5
20190424131438 19 206 0.0 0.0 0.00 0.00 0.00 88 1020.4
20190424130938 19 206 0.0 0.0 0.00 0.00 0.00 88 1020.4
20190424130438 19 206 0.0 0.0 0.00 0.00 0.00 88 1020.4
20190424125937 19 206 0.0 0.0 0.00 0.00 0.00 88 1020.5
20190424125438 19 206 0.0 0.0 0.00 0.00 0.00 88 1020.6
20190424124938 20 206 0.0 0.0 0.00 0.00 0.00 88 1020.5
20190424124436 20 206 0.0 0.0 0.00 0.00 0.00 87 1020.6
20190424123936 20 206 0.0 0.0 0.00 0.00 0.00 87 1020.7
20190424123438 20 206 0.0 0.0 0.00 0.00 0.00 87 1020.7
20190424122936 20 206 0.0 0.0 0.00 0.00 0.00 86 1020.6
20190424122435 20 206 0.0 0.0 0.00 0.00 0.00 86 1020.6
20190424121935 20 206 0.0 0.0 0.00 0.00 0.00 86 1020.6
20190424121434 20 206 0.0 0.0 0.00 0.00 0.00 86 1020.5
20190424120935 20 206 0.0 0.0 0.00 0.00 0.00 86 1020.6
20190424120435 20 206 0.0 0.0 0.00 0.00 0.00 86 1020.6
20190424115935 20 206 0.0 0.0 0.00 0.00 0.00 86 1020.7
20190424115435 20 206 0.0 0.0 0.00 0.00 0.00 85 1020.9
20190424114935 20 206 0.0 0.0 0.00 0.00 0.00 85 1020.9
20190424114434 20 206 0.0 0.0 0.00 0.00 0.00 85 1020.9
20190424113934 20 206 0.0 0.0 0.00 0.00 0.00 84 1021.0
20190424113433 21 206 0.0 0.0 0.00 0.00 0.00 84 1020.9
20190424112933 21 206 0.0 0.0 0.00 0.00 0.00 83 1020.9
20190424112432 21 206 0.0 0.0 0.00 0.00 0.00 83 1020.9
20190424111932 21 206 0.0 0.0 0.00 0.00 0.00 83 1020.9
20190424111432 21 206 0.0 0.0 0.00 0.00 0.00 83 1020.9
20190424110933 21 206 0.0 0.0 0.00 0.00 0.00 83 1020.9
20190424110434 21 206 0.0 0.0 0.00 0.00 0.00 83 1021.0
20190424105932 21 206 0.0 0.0 0.00 0.00 0.00 83 1021.0
20190424105432 21 206 0.0 0.0 0.00 0.00 0.00 83 1021.0
20190424104930 21 206 0.0 0.0 0.00 0.00 0.00 82 1021.0
20190424104431 21 206 0.0 0.0 0.00 0.00 0.00 82 1021.1
20190424103932 21 206 0.0 1.6 0.00 0.00 0.00 81 1021.0
20190424103432 21 206 0.0 1.6 0.00 0.00 0.00 81 1021.0
20190424102930 21 204 0.0 1.6 0.00 0.00 0.00 81 1021.0
20190424102430 21 220 0.0 3.2 0.00 0.00 0.00 80 1020.9
20190424101931 21 218 0.0 3.2 0.00 0.00 0.00 80 1020.9
20190424101430 21 186 0.0 4.8 0.00 0.00 0.00 80 1020.8
20190424100929 22 180 0.0 4.8 0.00 0.00 0.00 79 1020.8
20190424100428 22 196 0.0 3.2 0.00 0.00 0.00 79 1020.9
20190424095926 22 151 0.0 3.2 0.00 0.00 0.00 79 1020.8
20190424095426 22 165 0.0 4.8 0.00 0.00 0.00 79 1020.8
20190424094926 22 225 1.6 4.8 0.00 0.00 0.00 79 1020.8
20190424094427 22 104 1.6 9.7 0.00 0.00 0.00 79 1020.8
20190424093927 22 60 1.6 9.7 0.00 0.00 0.00 79 1020.7
20190424093426 22 161 0.0 4.8 0.00 0.00 0.00 79 1020.6
20190424092927 22 137 0.0 4.8 0.00 0.00 0.00 79 1020.6
20190424092427 22 158 0.0 4.8 0.00 0.00 0.00 79 1020.6
20190424091926 22 151 0.0 3.2 0.00 0.00 0.00 78 1020.6
20190424091427 22 151 0.0 3.2 0.00 0.00 0.00 79 1020.5
20190424090926 22 141 0.0 6.4 0.00 0.00 0.00 78 1020.4
20190424090424 22 167 1.6 6.4 0.00 0.00 0.00 78 1020.4
20190424085925 22 213 0.0 3.2 0.00 0.00 0.00 79 1020.4
20190424085425 22 116 0.0 3.2 0.00 0.00 0.00 79 1020.3
20190424084924 22 85 0.0 3.2 0.00 0.00 0.00 79 1020.3
20190424084425 22 130 1.6 8.0 0.00 0.00 0.00 79 1020.3
20190424083926 22 95 1.6 8.0 0.00 0.00 0.00 79 1020.2
20190424083426 22 238 0.0 4.8 0.00 0.00 0.00 79 1020.1
20190424082924 22 196 0.0 6.4 0.00 0.00 0.00 79 1020.2
20190424082424 22 146 1.6 6.4 0.00 0.00 0.00 80 1020.1
20190424081923 22 114 1.6 6.4 0.00 0.00 0.00 80 1020.1
20190424081422 22 139 0.0 4.8 0.00 0.00 0.00 80 1020.1
20190424080923 22 186 0.0 4.8 0.00 0.00 0.00 80 1020.0
20190424080422 22 213 0.0 4.8 0.00 0.00 0.00 80 1020.1
20190424075924 22 185 0.0 4.8 0.00 0.00 0.00 80 1020.0
20190424075422 22 186 1.6 4.8 0.00 0.00 0.00 80 1019.9
20190424074922 22 128 1.6 6.4 0.00 0.00 0.00 79 1019.8
20190424074422 22 168 1.6 6.4 0.00 0.00 0.00 79 1019.8
20190424073922 22 115 1.6 9.7 0.00 0.00 0.00 78 1019.8
20190424073422 22 87 1.6 9.7 0.00 0.00 0.00 78 1019.8
20190424072920 22 210 1.6 6.4 0.00 0.00 0.00 77 1019.7
20190424072420 22 176 1.6 6.4 0.00 0.00 0.00 77 1019.7
20190424071921 22 177 1.6 6.4 0.00 0.00 0.00 77 1019.7
20190424071420 22 190 1.6 8.0 0.00 0.00 0.00 77 1019.7
20190424070921 22 133 1.6 8.0 0.00 0.00 0.00 76 1019.6
20190424070420 22 111 1.6 8.0 0.00 0.00 0.00 74 1019.6
20190424065920 22 105 1.6 11.3 0.00 0.00 0.00 72 1019.6
20190424065420 22 118 3.2 11.3 0.00 0.00 0.00 71 1019.6
20190424064920 23 175 3.2 11.3 0.00 0.00 0.00 71 1019.5
20190424064420 23 210 1.6 11.3 0.00 0.00 0.00 71 1019.5
20190424063918 23 146 1.6 9.7 0.00 0.00 0.00 70 1019.5
20190424063418 23 142 1.6 8.0 0.00 0.00 0.00 71 1019.5
20190424062918 23 185 3.2 14.5 0.00 0.00 0.00 71 1019.5
20190424062420 23 180 3.2 14.5 0.00 0.00 0.00 71 1019.5
20190424061918 23 125 3.2 11.3 0.00 0.00 0.00 70 1019.5
20190424061420 23 126 3.2 11.3 0.00 0.00 0.00 69 1019.3
20190424060920 23 109 3.2 11.3 0.00 0.00 0.00 69 1019.3
20190424060420 23 121 1.6 9.7 0.00 0.00 0.00 69 1019.2
20190424055918 23 189 3.2 9.7 0.00 0.00 0.00 69 1019.2
20190424055418 23 230 3.2 9.7 0.00 0.00 0.00 69 1019.3
20190424054917 23 201 3.2 11.3 0.00 0.00 0.00 68 1019.2
20190424054416 23 166 3.2 11.3 0.00 0.00 0.00 68 1019.2
20190424053917 24 186 3.2 11.3 0.00 0.00 0.00 68 1019.2
20190424053416 24 259 3.2 14.5 0.00 0.00 0.00 68 1019.3
20190424052917 24 194 3.2 14.5 0.00 0.00 0.00 68 1019.3
20190424052416 24 116 3.2 12.9 0.00 0.00 0.00 67 1019.3
20190424051916 25 176 3.2 14.5 0.00 0.00 0.00 67 1019.3
20190424051417 25 50 3.2 14.5 0.00 0.00 0.00 66 1019.3
20190424050916 25 92 4.8 14.5 0.00 0.00 0.00 66 1019.3
20190424050416 25 101 6.4 14.5 0.00 0.00 0.00 65 1019.3
20190424045915 25 128 4.8 17.7 0.00 0.00 0.00 65 1019.4
20190424045416 25 119 4.8 17.7 0.00 0.00 0.00 65 1019.3
20190424044914 25 202 4.8 16.1 0.00 0.00 0.00 65 1019.3
20190424044414 25 197 6.4 16.1 0.00 0.00 0.00 64 1019.4
20190424043914 25 87 4.8 14.5 0.00 0.00 0.00 65 1019.3
20190424043415 25 124 4.8 12.9 0.00 0.00 0.00 64 1019.3
20190424042914 25 67 3.2 14.5 0.00 0.00 0.00 64 1019.3
20190424042414 25 40 4.8 19.3 0.00 0.00 0.00 64 1019.3
20190424041914 25 92 4.8 19.3 0.00 0.00 0.00 63 1019.4
20190424041412 26 133 4.8 16.1 0.00 0.00 0.00 64 1019.4
20190424040913 25 77 3.2 12.9 0.00 0.00 0.00 65 1019.4
20190424040412 25 295 3.2 14.5 0.00 0.00 0.00 63 1019.4
20190424035913 25 211 4.8 16.1 0.00 0.00 0.00 65 1019.5
20190424035413 25 35 4.8 16.1 0.00 0.00 0.00 65 1019.5
20190424034913 25 228 4.8 19.3 0.00 0.00 0.00 66 1019.6
20190424034413 25 111 4.8 19.3 0.00 0.00 0.00 65 1019.5
20190424033913 25 180 6.4 19.3 0.00 0.00 0.00 65 1019.6
20190424033412 25 170 6.4 19.3 0.00 0.00 0.00 64 1019.6
20190424032912 25 100 4.8 17.7 0.00 0.03 0.00 64 1019.7
20190424032411 25 109 3.2 17.7 0.00 0.05 0.00 65 1019.6
20190424031911 25 22 3.2 14.5 0.00 0.05 0.00 64 1019.6
20190424031410 25 130 4.8 14.5 0.00 0.05 0.00 67 1019.6
20190424030910 25 92 6.4 17.7 0.00 0.05 0.00 65 1019.6
20190424030410 25 206 4.8 20.9 0.00 0.05 0.00 64 1019.7
20190424025910 25 144 4.8 20.9 0.00 0.05 0.00 66 1019.7
20190424025410 25 105 4.8 16.1 0.00 0.05 0.00 66 1019.8
20190424024910 25 188 4.8 16.1 0.00 0.05 0.00 67 1019.9
20190424024410 25 50 4.8 12.9 0.00 0.05 0.00 65 1020.0
20190424023912 26 84 3.2 11.3 0.00 0.05 0.00 65 1020.2
20190424023409 26 85 3.2 17.7 0.00 0.05 0.00 65 1020.2
20190424022909 25 73 4.8 17.7 0.00 0.05 0.00 67 1020.2
20190424022408 25 81 6.4 17.7 0.00 0.05 0.00 67 1020.2
20190424021908 25 132 4.8 17.7 0.00 0.05 0.00 66 1020.2
20190424021409 25 214 4.8 16.1 0.00 0.05 0.00 66 1020.3
20190424020909 25 47 4.8 14.5 0.00 0.05 0.00 67 1020.4
20190424020408 25 133 4.8 16.1 0.00 0.05 0.00 67 1020.5
20190424015908 25 115 4.8 16.1 0.00 0.05 0.00 68 1020.4
20190424015408 25 246 4.8 16.1 0.00 0.05 0.00 68 1020.5
20190424014906 25 195 4.8 17.7 0.00 0.05 0.00 67 1020.7
20190424014408 25 101 4.8 17.7 0.00 0.05 0.00 67 1020.7
20190424013907 25 147 6.4 14.5 0.00 0.05 0.00 66 1020.7
20190424013406 25 87 4.8 17.7 0.00 0.05 0.00 66 1020.9
20190424012906 25 76 4.8 19.3 0.00 0.05 0.00 67 1020.9
20190424012407 25 118 4.8 19.3 0.00 0.05 0.00 67 1020.9
20190424011908 26 95 4.8 14.5 0.00 0.05 0.00 66 1021.0
20190424011406 25 22 4.8 16.1 0.00 0.05 0.00 65 1021.1
20190424010906 25 122 6.4 16.1 0.00 0.05 0.00 66 1021.2
20190424010405 25 208 6.4 16.1 0.00 0.05 0.00 66 1021.3
20190424005904 25 109 4.8 16.1 0.00 0.05 0.00 66 1021.2
20190424005405 25 46 4.8 16.1 0.00 0.05 0.00 67 1021.3
20190424004904 25 80 4.8 16.1 0.00 0.05 0.00 66 1021.4
20190424004405 25 150 4.8 14.5 0.00 0.05 0.00 67 1021.4
20190424003904 25 151 4.8 17.7 0.00 0.05 0.00 67 1021.5
20190424003404 25 67 6.4 25.7 0.00 0.05 0.00 66 1021.6
20190424002904 25 121 4.8 25.7 0.00 0.05 0.00 65 1021.7
20190424002404 25 208 4.8 11.3 0.00 0.05 0.00 66 1021.7
20190424001903 25 275 3.2 14.5 0.00 0.05 0.00 67 1021.8
20190424001403 25 158 4.8 14.5 0.00 0.05 0.00 68 1021.9
20190424000902 25 74 4.8 12.9 0.00 0.05 0.00 67 1022.0
20190424000404 25 222 4.8 12.9 0.00 0.05 0.00 69 1022.0
20190423235902 25 116 3.2 12.9 0.00 0.05 0.00 69 1022.0
20190423235403 24 277 1.6 9.7 0.00 0.05 0.00 70 1022.1
20190423234903 23 91 1.6 8.0 0.00 0.05 0.00 71 1022.1
20190423234404 23 196 3.2 14.5 0.00 0.05 0.00 71 1022.1
20190423233904 23 115 3.2 14.5 0.00 0.05 0.00 70 1022.2
20190423233405 24 94 3.2 14.5 0.00 0.05 0.00 70 1022.3
20190423232902 24 144 3.2 12.9 0.00 0.05 0.00 70 1022.1
20190423232400 24 156 4.8 12.9 0.00 0.08 0.00 70 1022.1
20190423231901 24 76 4.8 22.5 0.00 0.08 0.00 70 1022.2
20190423231400 25 40 3.2 22.5 0.00 0.08 0.00 69 1022.1
20190423230900 25 258 3.2 11.3 0.00 0.08 0.00 70 1022.1
20190423230401 24 119 3.2 9.7 0.00 0.08 0.00 72 1022.1
20190423225900 24 77 3.2 11.3 0.00 0.08 0.00 74 1022.2
20190423225400 24 227 4.8 12.9 0.00 0.08 0.00 75 1022.1
20190423224901 23 99 4.8 12.9 0.00 0.08 0.00 75 1022.2